STARLINK-34606, 64730

Orbit data source: Space-Track

STARLINK-34606, 64730 is a payload satellite owned by SpaceX/Seattle (US) in LEO that was launched on Wed, 02 Jul 2025 UTC via an FALCON 9 launch vehicle from the Air Force Eastern Test Range (AFETR). Payload-class satellites include a variety of spacecraft equipped with specific instruments for various scientific and technological missions. These include communications satellites like Starlink; space stations such as the ISS; scientific satellites like the Hubble; Earth observation satellites from companies like Planet Labs, Umbra, and HawkEye 360; GPS; miniature CubeSats for education and research; and military/defense satellites.

Loading next visibility...
Identifier
64730, 2025-144G
Orbit
LEO
Last TLE update
12 hours ago
Origin
Manufacturer
SpaceX/Seattle
Mission
Operational spacecraft
Bus & Motor
STARLINK V2MO, Unknown motor
Mass
575 kg wet, ~530 kg dry
Launch date (UTC)
2025-07-02 (1 week ago)
Launch vehicle
FALCON 9
Launch site
Air Force Eastern Test Range (AFETR)
Object type
Payload
Rocket body
Debris
Shape & HBR
Unknown
Radar Cross Section
RCS unknown

Expand to show TLE details & history

TLE from 12 hours ago
0 STARLINK-34606
1 64730U 25144G   25191.66668981 -.01125257  00000-0 -46424-2 0  9991
2 64730  53.1539 231.7597 0000836  70.7617   5.9858 15.87814765  2578
Epoch: 2025-07-10T16:00Z
TLE epoch observation values (Epoch: 2025-07-10T16:00:01.999Z)
Latitude
51.31758°
Longitude
131.45754°
Altitude
313.949 km
Speed
7.726 km/s
True Right ascension
20h 01m 10s
True Declination
51° 08' 19"
Sunlit
Object was in daylight at epoch
Visualization orbit readout
Latitude
14.96278°
Longitude
-131.1887°
Altitude
312.206 km
Speed
7.723 km/s
Apparent Right ascension
03h 27m 39s
Apparent Declination
-12° 11' 22"
Sunlit
Object is in daylight
Visualization observer readout
Local Sidereal Time
16:43:35
Azimuth
36.403° NE
Elevation
-57.61°
Doppler factor
1
Orbital elements
Apogee altitude
309.233 km
Perigee altitude
308.115 km
Semi-major axis
6,686.811 km
Eccentricity
0.00008
Inclination
53.1539°
RAAN
231.7597°
Arg. of periapsis
70.7617°
True anomaly
Unknown
Mean anomaly
5.9858°
Eccentric anomaly
Unknown
Mean motion
3.96931 °/min
Orbital period
90.7 mins
BSTAR
-0.0046424
Loading maneuver chart data...
Loading SW <> Apogee altitude chart data...
Loading historical data...
Loading historical data...
Loading historical data...
Loading historical data...
Loading historical data...
Loading historical data...
Loading historical data...

STARLINK-34606 Visibility forecast

Observer location: undefined°, undefined°

Span
Click to sort rows by Start time (UTC) header in descending order
Start Az.
Max El. time (UTC)
Max El. Az.
Max El.
End time (UTC)
End Az.
5 mins2025-07-11 05:27:41.754Z226.119° WSW2025-07-11 05:29:41.754Z213.906° SW40.77°2025-07-11 05:32:41.754Z51.722° ENE
|